[[{"header":{"parameterUnit":"m.s-1","parameterCategory":1,"la1":30.2991,"la2":30.254,"lo1":-89.0895,"lo2":-89.0444,"dy":0.0017,"dx":0.0017,"nx":28,"ny":28,"refTime":"2023-10-12T03:00:00:Z","depth":0,"parameterNumber":2,"parameterNumberName":"U-component_of_WINDS"},"data":[0,0,0,0,0,0,0,0,0,0,0,0,0,0,0,0,0,0,0,0,0,0,0,0,0,0,0,0,0,0,0,0,0,0,0,0,0,0,0,0,0,0,0,0,0,0,0,0,0,0,0,0,0,0,0,0,0,0,-1.3966,-1.3967,0,-1.4059,-1.406,-1.4061,-1.4048,-1.4046,-1.4045,-1.4043,-1.4138,-1.4142,-1.4146,0,0,0,0,0,0,0,0,0,0,0,0,0,-1.3777,-1.378,-1.3966,-1.3967,-1.3969,-1.4059,-1.406,-1.4061,-1.4048,-1.4046,-1.4044,-1.4043,-1.4137,-1.4141,-1.4146,0,0,0,0,0,0,0,0,0,0,0,0,0,-1.3863,-1.3782,-1.3966,-1.3973,-1.3974,-1.4059,-1.406,-1.4062,-1.4048,-1.4046,-1.4044,-1.4042,-1.4135,-1.4141,-1.4147,-1.423,0,0,-1.4165,-1.4168,0,0,0,0,0,0,0,0,-1.3858,-1.387,-1.3971,-1.3972,-1.3974,-1.4039,-1.4028,-1.4118,-1.4049,-1.402,-1.4043,-1.4041,-1.4107,-1.4115,-1.4138,-1.4235,-1.4239,-1.4166,-1.4169,-1.4172,-1.4173,0,0,0,0,0,0,0,-1.3853,-1.3866,-1.4003,-1.3972,-1.3974,-1.3971,-1.3981,-1.4045,-1.4076,-1.4023,-1.4022,-1.4033,-1.4108,-1.4132,-1.414,-1.424,-1.4165,-1.4171,-1.4174,-1.4177,-1.4409,-1.4412,0,0,0,0,0,0,-1.3845,-1.3861,-1.4,-1.4006,-1.3909,-1.3976,-1.3987,-1.4021,-1.4075,-1.4081,-1.4035,-1.4032,-1.4123,-1.4133,-1.4143,-1.4244,-1.4172,-1.4177,-1.4181,-1.4407,-1.441,-1.4413,0,0,0,0,0,0,-1.3841,-1.3857,-1.3996,-1.3933,-1.3951,-1.3982,-1.402,-1.4024,-1.4048,-1.4084,-1.409,-1.4054,-1.4122,-1.4135,-1.4209,-1.4247,-1.418,-1.4185,-1.4404,-1.4408,-1.4411,-1.4447,0,0,0,0,0,0,-1.3835,-1.3856,-1.3888,-1.3934,-1.3954,-1.406,-1.4022,-1.4027,-1.4059,-1.4056,-1.4104,-1.4109,-1.4121,-1.42,-1.4214,-1.4254,-1.419,-1.44,-1.4405,-1.441,-1.4442,-1.4451,-1.4459,0,0,0,0,0,-1.3829,-1.3895,-1.389,-1.3907,-1.3995,-1.4063,-1.4074,-1.4086,-1.4062,-1.4094,-1.4117,-1.4108,-1.424,-1.4207,-1.4224,-1.4266,-1.4398,-1.4404,-1.441,-1.4438,-1.4449,-1.4459,0,0,0,0,0,0,-1.3852,-1.3901,-1.3896,-1.3979,-1.4017,-1.406,-1.4102,-1.4097,-1.4143,-1.4138,-1.4151,-1.4162,-1.4236,-1.4258,-1.4221,-1.4349,-1.4316,-1.4325,-1.4332,-1.4343,-1.4351,-1.4344,-1.4195,0,0,0,0,0,-1.3867,-1.3918,-1.3957,-1.4027,-1.4046,-1.4071,-1.41,-1.4106,-1.4146,-1.4162,-1.419,-1.4229,-1.4279,-1.4312,-1.436,-1.4445,-1.4455,-1.4482,-1.449,-1.4497,-1.4505,-1.4551,-1.4563,-1.4432,-1.4432,-1.4432,0,0,-1.3899,-1.3931,-1.3963,-1.4032,-1.4062,-1.4114,-1.4084,-1.4141,-1.418,-1.417,-1.4242,-1.4264,-1.4308,-1.4387,-1.4424,-1.4408,-1.4543,-1.4504,-1.451,-1.4514,-1.4558,-1.4571,-1.4582,-1.4436,-1.4435,-1.4434,0,0,-1.3982,-1.4012,-1.4073,-1.4103,-1.4149,-1.4165,-1.4179,-1.4224,-1.4238,-1.431,-1.4304,-1.435,-1.4436,-1.4468,-1.4495,-1.4589,-1.4583,-1.4605,-1.4649,-1.4694,-1.4704,-1.4713,-1.4747,-1.4759,-1.4613,-1.4613,-1.4613,0,-1.4015,-1.4094,-1.4105,-1.4162,-1.4193,-1.4186,-1.4248,-1.4277,-1.4336,-1.4357,-1.4338,-1.4446,-1.4476,-1.4562,-1.4585,-1.4607,-1.4624,-1.46,-1.4702,-1.4711,-1.472,-1.4752,-1.4764,-1.4615,-1.4615,-1.4615,-1.4614,0,-1.4132,-1.4187,-1.423,-1.4288,-1.4323,-1.4382,-1.4401,-1.4436,-1.4438,-1.4455,-1.4528,-1.4563,-1.4618,-1.4639,-1.4642,-1.4725,-1.4714,-1.4699,-1.4666,-1.4734,-1.4765,-1.4777,-1.4619,-1.4618,-1.4617,-1.4616,0,0,-1.4235,-1.4296,-1.4312,-1.4338,-1.4387,-1.4429,-1.4488,-1.4541,-1.457,-1.4611,-1.466,-1.4733,-1.4719,-1.475,-1.4756,-1.4795,-1.4867,-1.4774,-1.4775,-1.479,-1.4961,-1.4973,-1.4987,-1.4862,-1.4865,-1.4867,-1.4958,0,-1.4323,-1.4427,-1.4437,-1.453,-1.458,-1.4574,-1.4625,-1.466,-1.4678,-1.4723,-1.4742,-1.4794,-1.4771,-1.479,-1.4828,-1.485,-1.4902,-1.4844,-1.4908,-1.491,-1.4898,-1.5003,-1.5016,-1.51,-1.497,-1.4972,-1.4973,0,-1.4441,-1.4485,-1.4582,-1.4624,-1.4645,-1.4691,-1.474,-1.4783,-1.4823,-1.4833,-1.4867,-1.4868,-1.4928,-1.4892,-1.4974,-1.4935,-1.4961,-1.4976,-1.498,-1.4987,-1.4946,-1.5013,-1.5127,-1.5139,-1.4992,-1.499,-1.4989,0,-1.4505,-1.4589,-1.4658,-1.468,-1.473,-1.4762,-1.4785,-1.4822,-1.4853,-1.4897,-1.4917,-1.4966,-1.4994,-1.5032,-1.5046,-1.5018,-1.5127,-1.5093,-1.5137,-1.5137,-1.5161,-1.5159,-1.5281,-1.5178,-1.5178,-1.5177,-1.5177,0,-1.4603,-1.4663,-1.4687,-1.473,-1.4796,-1.4808,-1.4873,-1.4894,-1.4927,-1.4973,-1.4971,-1.5014,-1.503,-1.5076,-1.5087,-1.5153,-1.5165,-1.5175,-1.5177,-1.5175,-1.5174,-1.5193,-1.5188,-1.5181,-1.518,-1.5179,-1.5179,0,-1.4687,-1.4706,-1.4781,-1.4822,-1.4834,-1.4881,-1.4916,-1.4957,-1.4973,-1.5032,-1.5046,-1.5072,-1.5126,-1.5143,-1.5208,-1.5215,-1.5293,-1.529,-1.5279,-1.528,-1.5323,-1.5319,-1.5462,-1.5481,-1.5365,-1.5366,-1.5367,0,-1.4749,-1.4795,-1.4841,-1.4871,-1.4895,-1.4944,-1.4976,-1.4989,-1.5022,-1.507,-1.5105,-1.5158,-1.5201,-1.5287,-1.5312,-1.5361,-1.5359,-1.5406,-1.5367,-1.5363,-1.536,-1.5357,-1.5362,-1.5413,-1.5415,-1.5416,-1.5416,0,-1.4856,-1.4863,-1.4909,-1.4958,-1.4995,-1.5035,-1.5072,-1.5098,-1.5116,-1.5153,-1.5207,-1.5241,-1.5307,-1.5359,-1.5409,-1.5432,-1.5428,-1.5428,-1.5441,-1.544,-1.5432,-1.5437,-1.53,-1.5425,-1.5424,-1.5424,-1.5423,-1.5423,-1.4931,-1.4971,-1.5009,-1.506,-1.509,-1.5125,-1.5165,-1.5187,-1.5232,-1.5287,-1.5291,-1.535,-1.5388,-1.5455,-1.548,-1.5526,-1.5513,-1.5532,-1.5536,-1.5541,-1.5544,-1.5424,-1.5535,-1.5535,-1.5535,-1.5535,-1.5535,0,-1.5038,-1.5062,-1.5109,-1.5161,-1.5201,-1.5193,-1.5234,-1.5268,-1.532,-1.5356,-1.5398,-1.546,-1.5511,-1.5539,-1.559,-1.5621,-1.562,-1.5634,-1.5632,-1.5637,-1.5553,-1.5537,-1.5634,-1.5634,-1.5634,-1.5634,-1.5634,-1.5634,-1.5098,-1.5165,-1.5176,-1.5258,-1.5282,-1.534,-1.5364,-1.5396,-1.5424,-1.5494,-1.5536,-1.5554,-1.5587,-1.564,-1.5686,-1.5692,-1.5711,-1.5727,-1.5732,-1.5653,-1.5643,-1.5633,-1.5618,-1.573,-1.5731,-1.5812,-1.5813,-1.5813]},{"header":{"parameterUnit":"m.s-1","parameterCategory":1,"la1":30.2991,"la2":30.254,"lo1":-89.0895,"lo2":-89.0444,"dy":0.0017,"dx":0.0017,"nx":28,"ny":28,"refTime":"2023-10-12T03:00:00:Z","depth":0,"parameterNumber":3,"parameterNumberName":"V-component_of_WINDS"},"data":[0,0,0,0,0,0,0,0,0,0,0,0,0,0,0,0,0,0,0,0,0,0,0,0,0,0,0,0,0,0,0,0,0,0,0,0,0,0,0,0,0,0,0,0,0,0,0,0,0,0,0,0,0,0,0,0,0,0,-2.8051,-2.8052,0,-2.81,-2.8101,-2.8101,-2.8093,-2.8092,-2.8091,-2.809,-2.8137,-2.8139,-2.8141,0,0,0,0,0,0,0,0,0,0,0,0,0,-2.7948,-2.795,-2.8051,-2.8052,-2.8053,-2.81,-2.8101,-2.8101,-2.8093,-2.8092,-2.8091,-2.809,-2.8137,-2.8139,-2.8142,0,0,0,0,0,0,0,0,0,0,0,0,0,-2.7994,-2.7951,-2.8051,-2.8054,-2.8055,-2.81,-2.8101,-2.8102,-2.8093,-2.8092,-2.809,-2.8089,-2.8136,-2.8139,-2.8142,-2.8186,0,0,-2.8151,-2.8153,0,0,0,0,0,0,0,0,-2.7992,-2.7998,-2.8053,-2.8054,-2.8055,-2.8089,-2.8082,-2.813,-2.8093,-2.8078,-2.809,-2.8089,-2.8122,-2.8126,-2.8138,-2.8189,-2.8191,-2.8152,-2.8153,-2.8155,-2.8156,0,0,0,0,0,0,0,-2.7989,-2.7996,-2.8071,-2.8054,-2.8055,-2.8052,-2.8057,-2.8091,-2.8107,-2.808,-2.8079,-2.8085,-2.8122,-2.8135,-2.8139,-2.8191,-2.8152,-2.8154,-2.8156,-2.8157,-2.828,-2.8281,0,0,0,0,0,0,-2.7985,-2.7994,-2.8069,-2.8072,-2.802,-2.8055,-2.8061,-2.8079,-2.8106,-2.8109,-2.8086,-2.8085,-2.8131,-2.8136,-2.8141,-2.8194,-2.8155,-2.8158,-2.8159,-2.8279,-2.828,-2.8282,0,0,0,0,0,0,-2.7983,-2.7992,-2.8067,-2.8033,-2.8042,-2.8058,-2.8079,-2.8081,-2.8094,-2.8111,-2.8114,-2.8096,-2.813,-2.8136,-2.8175,-2.8195,-2.8159,-2.8162,-2.8277,-2.8279,-2.8281,-2.8301,0,0,0,0,0,0,-2.798,-2.7991,-2.8009,-2.8033,-2.8044,-2.8101,-2.808,-2.8083,-2.8099,-2.8098,-2.8122,-2.8124,-2.8129,-2.8171,-2.8178,-2.8199,-2.8164,-2.8275,-2.8278,-2.828,-2.8299,-2.8304,-2.8308,0,0,0,0,0,-2.7976,-2.8012,-2.801,-2.8019,-2.8067,-2.8103,-2.8109,-2.8114,-2.8101,-2.8118,-2.813,-2.8124,-2.8192,-2.8175,-2.8183,-2.8205,-2.8274,-2.8277,-2.828,-2.8297,-2.8303,-2.8308,0,0,0,0,0,0,-2.7989,-2.8015,-2.8013,-2.8058,-2.8078,-2.8101,-2.8123,-2.8121,-2.8144,-2.8142,-2.8147,-2.8152,-2.8191,-2.8202,-2.8182,-2.8249,-2.8231,-2.8236,-2.8241,-2.8247,-2.8251,-2.8247,-2.8167,0,0,0,0,0,-2.7997,-2.8025,-2.8046,-2.8084,-2.8094,-2.8107,-2.8123,-2.8126,-2.8146,-2.8155,-2.8169,-2.8188,-2.8214,-2.8231,-2.8256,-2.83,-2.8305,-2.832,-2.8324,-2.8328,-2.8332,-2.8355,-2.8362,-2.8292,-2.8292,-2.8292,0,0,-2.8014,-2.8032,-2.8049,-2.8087,-2.8103,-2.8131,-2.8114,-2.8145,-2.8165,-2.8159,-2.8196,-2.8207,-2.823,-2.8271,-2.829,-2.8281,-2.8352,-2.8332,-2.8335,-2.8337,-2.8359,-2.8366,-2.8372,-2.8294,-2.8294,-2.8294,0,0,-2.8059,-2.8076,-2.8109,-2.8125,-2.815,-2.8158,-2.8166,-2.8189,-2.8197,-2.8234,-2.823,-2.8254,-2.8299,-2.8315,-2.8328,-2.8379,-2.8374,-2.8387,-2.8411,-2.8433,-2.8439,-2.8444,-2.8461,-2.8467,-2.8391,-2.8391,-2.8391,0,-2.8077,-2.8119,-2.8126,-2.8156,-2.8173,-2.817,-2.8202,-2.8217,-2.8249,-2.8259,-2.825,-2.8305,-2.832,-2.8365,-2.8377,-2.8389,-2.8397,-2.8384,-2.8438,-2.8443,-2.8447,-2.8464,-2.847,-2.8393,-2.8393,-2.8392,-2.8392,0,-2.8139,-2.8169,-2.8192,-2.8223,-2.8242,-2.8273,-2.8284,-2.8302,-2.8303,-2.8312,-2.835,-2.8368,-2.8396,-2.8407,-2.8408,-2.8452,-2.8445,-2.8437,-2.8418,-2.8455,-2.8471,-2.8477,-2.8395,-2.8394,-2.8394,-2.8393,0,0,-2.8193,-2.8227,-2.8235,-2.8249,-2.8276,-2.8298,-2.8329,-2.8357,-2.8373,-2.8394,-2.8419,-2.8458,-2.845,-2.8465,-2.8468,-2.8488,-2.8526,-2.8477,-2.8478,-2.8485,-2.8574,-2.8579,-2.8587,-2.8523,-2.8525,-2.8526,-2.8572,0,-2.8239,-2.8295,-2.8301,-2.835,-2.8377,-2.8374,-2.8401,-2.842,-2.8429,-2.8453,-2.8463,-2.8489,-2.8477,-2.8487,-2.8506,-2.8517,-2.8544,-2.8514,-2.8546,-2.8547,-2.8539,-2.8595,-2.8601,-2.8644,-2.8578,-2.8579,-2.858,0,-2.8301,-2.8325,-2.8376,-2.8399,-2.8411,-2.8435,-2.8461,-2.8484,-2.8504,-2.851,-2.8527,-2.8528,-2.8559,-2.854,-2.8582,-2.8562,-2.8575,-2.8582,-2.8584,-2.8586,-2.8565,-2.8597,-2.8658,-2.8664,-2.8589,-2.8589,-2.8588,0,-2.8333,-2.8378,-2.8415,-2.8427,-2.8455,-2.8471,-2.8484,-2.8503,-2.852,-2.8542,-2.8553,-2.8579,-2.8592,-2.8612,-2.8618,-2.8604,-2.866,-2.8642,-2.8664,-2.8664,-2.8675,-2.8674,-2.8737,-2.8685,-2.8685,-2.8685,-2.8685,0,-2.8384,-2.8415,-2.843,-2.8452,-2.8487,-2.8494,-2.8528,-2.854,-2.8557,-2.8581,-2.858,-2.8603,-2.8611,-2.8634,-2.864,-2.8673,-2.8679,-2.8684,-2.8684,-2.8683,-2.8682,-2.8691,-2.8688,-2.8687,-2.8687,-2.8686,-2.8686,0,-2.8425,-2.8437,-2.8476,-2.8499,-2.8506,-2.853,-2.855,-2.8571,-2.858,-2.861,-2.8618,-2.8632,-2.8659,-2.8668,-2.8701,-2.8705,-2.8743,-2.8742,-2.8736,-2.8736,-2.8757,-2.8755,-2.8827,-2.8837,-2.878,-2.8781,-2.8781,0,-2.8456,-2.848,-2.8506,-2.8523,-2.8536,-2.8562,-2.8579,-2.8587,-2.8604,-2.863,-2.8647,-2.8675,-2.8697,-2.8741,-2.8753,-2.8778,-2.8777,-2.88,-2.878,-2.8778,-2.8776,-2.8774,-2.8776,-2.8804,-2.8804,-2.8805,-2.8805,0,-2.8509,-2.8514,-2.8539,-2.8565,-2.8585,-2.8607,-2.8627,-2.864,-2.8651,-2.867,-2.8699,-2.8716,-2.875,-2.8776,-2.8802,-2.8813,-2.8811,-2.8812,-2.8818,-2.8816,-2.8811,-2.8813,-2.8745,-2.881,-2.8809,-2.8809,-2.8809,-2.8808,-2.8546,-2.8567,-2.8588,-2.8616,-2.8632,-2.8651,-2.8672,-2.8684,-2.8708,-2.8737,-2.874,-2.877,-2.879,-2.8824,-2.8837,-2.886,-2.8853,-2.8863,-2.8865,-2.8867,-2.8868,-2.8809,-2.8865,-2.8865,-2.8865,-2.8865,-2.8864,0,-2.8598,-2.8612,-2.8637,-2.8666,-2.8687,-2.8684,-2.8706,-2.8724,-2.8751,-2.877,-2.8792,-2.8824,-2.885,-2.8865,-2.8891,-2.8906,-2.8906,-2.8913,-2.8911,-2.8914,-2.8873,-2.8864,-2.8913,-2.8913,-2.8913,-2.8913,-2.8913,-2.8913,-2.8628,-2.8663,-2.867,-2.8713,-2.8726,-2.8757,-2.8769,-2.8787,-2.8802,-2.8838,-2.886,-2.887,-2.8887,-2.8914,-2.8937,-2.8941,-2.895,-2.8958,-2.896,-2.8922,-2.8917,-2.8912,-2.8904,-2.896,-2.896,-2.8999,-2.8999,-2.9]}]]